Time,TemperatureF,DewpointF,PressureIn,WindDirection,WindDirectionDegrees,WindSpeedMPH,WindSpeedGustMPH,Humidity,HourlyPrecipIn,Conditions,Clouds,dailyrainin,SolarRadiationWatts/m^2,SoftwareType,DateUTC
2013-08-02 00:00:00,67.3,55.1,30.09,North,0,0.0,0.0,65,0.00,CLR,,0.00,0.0,WeatherDisplay:10.37,2013-08-01 22:00:00,
2013-08-02 00:05:00,67.1,55.4,30.09,North,0,0.0,0.0,66,0.00,CLR,,0.00,0.0,WeatherDisplay:10.37,2013-08-01 22:05:00,
2013-08-02 00:11:00,66.9,55.6,30.09,North,0,0.0,0.0,67,0.00,CLR,,0.00,0.0,WeatherDisplay:10.37,2013-08-01 22:11:00,
2013-08-02 00:16:00,66.9,55.2,30.09,North,0,0.0,0.0,66,0.00,CLR,,0.00,0.0,WeatherDisplay:10.37,2013-08-01 22:16:00,
2013-08-02 00:22:00,66.7,55.4,30.09,ENE,68,0.0,0.0,67,0.00,CLR,,0.00,0.0,WeatherDisplay:10.37,2013-08-01 22:22:00,
2013-08-02 00:27:00,66.6,55.3,30.09,ESE,112,0.0,0.0,67,0.00,CLR,,0.00,0.0,WeatherDisplay:10.37,2013-08-01 22:27:00,
2013-08-02 00:32:00,66.6,55.3,30.09,ESE,112,0.0,0.0,67,0.00,CLR,,0.00,0.0,WeatherDisplay:10.37,2013-08-01 22:32:00,
2013-08-02 00:37:00,66.4,55.1,30.09,NNE,22,0.0,0.0,67,0.00,CLR,,0.00,0.0,WeatherDisplay:10.37,2013-08-01 22:37:00,
2013-08-02 00:42:00,66.4,55.5,30.09,NNE,22,0.0,0.0,68,0.00,CLR,,0.00,0.0,WeatherDisplay:10.37,2013-08-01 22:42:00,
2013-08-02 00:48:00,66.2,55.3,30.09,NNE,22,0.0,0.0,68,0.00,CLR,,0.00,0.0,WeatherDisplay:10.37,2013-08-01 22:48:00,
2013-08-02 00:53:00,66.2,55.3,30.12,NNE,22,0.0,0.0,68,0.00,CLR,,0.00,0.0,WeatherDisplay:10.37,2013-08-01 22:53:00,
2013-08-02 00:58:00,66.0,55.6,30.12,NNE,22,0.0,0.0,69,0.00,CLR,,0.00,0.0,WeatherDisplay:10.37,2013-08-01 22:58:00,
2013-08-02 01:04:00,66.0,55.6,30.12,NNE,22,0.0,0.0,69,0.00,CLR,,0.00,0.0,WeatherDisplay:10.37,2013-08-01 23:04:00,
2013-08-02 01:09:00,65.8,55.4,30.09,NNE,22,0.0,0.0,69,0.00,CLR,,0.00,0.0,WeatherDisplay:10.37,2013-08-01 23:09:00,
2013-08-02 01:14:00,65.7,55.2,30.09,NNE,22,0.0,0.0,69,0.00,CLR,,0.00,0.0,WeatherDisplay:10.37,2013-08-01 23:14:00,
2013-08-02 01:19:00,65.7,55.6,30.09,NNE,22,0.0,0.0,70,0.00,CLR,,0.00,0.0,WeatherDisplay:10.37,2013-08-01 23:19:00,
2013-08-02 01:25:00,65.5,55.4,30.12,NNE,22,0.0,0.0,70,0.00,CLR,,0.00,0.0,WeatherDisplay:10.37,2013-08-01 23:25:00,
2013-08-02 01:30:00,65.5,55.4,30.12,NNE,22,0.0,0.0,70,0.00,CLR,,0.00,0.0,WeatherDisplay:10.37,2013-08-01 23:30:00,
2013-08-02 01:37:00,65.3,55.3,30.12,NNE,22,0.0,0.0,70,0.00,CLR,,0.00,0.0,WeatherDisplay:10.37,2013-08-01 23:37:00,
2013-08-02 01:42:00,65.1,55.1,30.12,NNE,22,0.0,0.0,70,0.00,CLR,,0.00,0.0,WeatherDisplay:10.37,2013-08-01 23:42:00,
2013-08-02 01:47:00,65.1,55.1,30.12,NNE,22,0.0,0.0,70,0.00,CLR,,0.00,0.0,WeatherDisplay:10.37,2013-08-01 23:47:00,
2013-08-02 01:53:00,64.9,54.9,30.12,East,90,0.0,0.0,70,0.00,CLR,,0.00,0.0,WeatherDisplay:10.37,2013-08-01 23:53:00,
2013-08-02 01:58:00,64.9,55.3,30.12,SSE,158,0.0,0.0,71,0.00,CLR,,0.00,0.0,WeatherDisplay:10.37,2013-08-01 23:58:00,
2013-08-02 02:04:00,64.9,55.3,30.12,SSW,202,0.0,0.0,71,0.00,CLR,,0.00,0.0,WeatherDisplay:10.37,2013-08-02 00:04:00,
2013-08-02 02:09:00,64.9,55.3,30.12,WNW,292,0.0,0.0,71,0.00,CLR,,0.00,0.0,WeatherDisplay:10.37,2013-08-02 00:09:00,
2013-08-02 02:14:00,64.8,55.1,30.12,WNW,292,0.0,0.0,71,0.00,CLR,,0.00,0.0,WeatherDisplay:10.37,2013-08-02 00:14:00,
2013-08-02 02:20:00,64.8,55.1,30.12,WNW,292,0.0,0.0,71,0.00,CLR,,0.00,0.0,WeatherDisplay:10.37,2013-08-02 00:20:00,
2013-08-02 02:25:00,64.8,55.1,30.12,WNW,292,0.0,0.0,71,0.00,CLR,,0.00,0.0,WeatherDisplay:10.37,2013-08-02 00:25:00,
2013-08-02 02:30:00,64.6,55.0,30.12,WNW,292,0.0,0.0,71,0.00,CLR,,0.00,0.0,WeatherDisplay:10.37,2013-08-02 00:30:00,
2013-08-02 02:35:00,64.6,55.0,30.12,WNW,292,0.0,0.0,71,0.00,CLR,,0.00,0.0,WeatherDisplay:10.37,2013-08-02 00:35:00,
2013-08-02 02:40:00,64.6,55.3,30.12,WNW,292,0.0,0.0,72,0.00,CLR,,0.00,0.0,WeatherDisplay:10.37,2013-08-02 00:40:00,
2013-08-02 02:45:00,64.4,55.2,30.12,WNW,292,0.0,0.0,72,0.00,CLR,,0.00,0.0,WeatherDisplay:10.37,2013-08-02 00:45:00,
2013-08-02 02:51:00,64.2,55.0,30.12,WNW,292,0.0,0.0,72,0.00,CLR,,0.00,0.0,WeatherDisplay:10.37,2013-08-02 00:51:00,
2013-08-02 02:57:00,64.2,55.0,30.12,WNW,292,0.0,0.0,72,0.00,CLR,,0.00,0.0,WeatherDisplay:10.37,2013-08-02 00:57:00,
2013-08-02 03:02:00,64.2,55.4,30.12,WNW,292,0.0,0.0,73,0.00,CLR,,0.00,0.0,WeatherDisplay:10.37,2013-08-02 01:02:00,
2013-08-02 03:08:00,64.0,55.2,30.12,WNW,292,0.0,0.0,73,0.00,CLR,,0.00,0.0,WeatherDisplay:10.37,2013-08-02 01:08:00,
2013-08-02 03:13:00,63.9,55.0,30.12,WNW,292,0.0,0.0,73,0.00,CLR,,0.00,0.0,WeatherDisplay:10.37,2013-08-02 01:13:00,
2013-08-02 03:18:00,63.9,55.0,30.12,WNW,292,0.0,0.0,73,0.00,CLR,,0.00,0.0,WeatherDisplay:10.37,2013-08-02 01:18:00,
2013-08-02 03:23:00,63.7,54.9,30.12,WNW,292,0.0,0.0,73,0.00,CLR,,0.00,0.0,WeatherDisplay:10.37,2013-08-02 01:23:00,
2013-08-02 03:28:00,63.7,54.9,30.12,WNW,292,0.0,0.0,73,0.00,CLR,,0.00,0.0,WeatherDisplay:10.37,2013-08-02 01:28:00,
2013-08-02 03:33:00,63.5,55.1,30.12,WNW,292,0.0,0.0,74,0.00,CLR,,0.00,0.0,WeatherDisplay:10.37,2013-08-02 01:33:00,
2013-08-02 03:38:00,63.5,55.1,30.12,WNW,292,0.0,0.0,74,0.00,CLR,,0.00,0.0,WeatherDisplay:10.37,2013-08-02 01:38:00,
2013-08-02 03:43:00,63.3,54.9,30.12,WNW,292,0.0,0.0,74,0.00,CLR,,0.00,0.0,WeatherDisplay:10.37,2013-08-02 01:43:00,
2013-08-02 03:48:00,63.3,54.9,30.12,WNW,292,0.0,0.0,74,0.00,CLR,,0.00,0.0,WeatherDisplay:10.37,2013-08-02 01:48:00,
2013-08-02 03:53:00,63.1,54.7,30.15,WNW,292,0.0,0.0,74,0.00,CLR,,0.00,0.0,WeatherDisplay:10.37,2013-08-02 01:53:00,
2013-08-02 03:58:00,63.1,55.1,30.15,WNW,292,0.0,0.0,75,0.00,CLR,,0.00,0.0,WeatherDisplay:10.37,2013-08-02 01:58:00,
2013-08-02 04:04:00,63.0,54.9,30.15,WNW,292,0.0,0.0,75,0.00,CLR,,0.00,0.0,WeatherDisplay:10.37,2013-08-02 02:04:00,
2013-08-02 04:09:00,63.0,54.9,30.12,WNW,292,0.0,0.0,75,0.00,CLR,,0.00,0.0,WeatherDisplay:10.37,2013-08-02 02:09:00,
2013-08-02 04:15:00,62.8,54.7,30.12,WNW,292,0.0,0.0,75,0.00,CLR,,0.00,0.0,WeatherDisplay:10.37,2013-08-02 02:15:00,
2013-08-02 04:21:00,62.8,55.1,30.12,WNW,292,0.0,0.0,76,0.00,CLR,,0.00,0.0,WeatherDisplay:10.37,2013-08-02 02:21:00,
2013-08-02 04:26:00,62.6,54.9,30.12,WNW,292,0.0,0.0,76,0.00,CLR,,0.00,0.0,WeatherDisplay:10.37,2013-08-02 02:26:00,
2013-08-02 04:31:00,62.6,54.9,30.12,WNW,292,0.0,0.0,76,0.00,CLR,,0.00,0.0,WeatherDisplay:10.37,2013-08-02 02:31:00,
2013-08-02 04:37:00,62.4,55.1,30.15,WNW,292,0.0,0.0,77,0.00,CLR,,0.00,0.0,WeatherDisplay:10.37,2013-08-02 02:37:00,
2013-08-02 04:42:00,62.4,55.1,30.15,WNW,292,0.0,0.0,77,0.00,CLR,,0.00,0.0,WeatherDisplay:10.37,2013-08-02 02:42:00,
2013-08-02 04:47:00,62.2,54.9,30.15,WNW,292,0.0,0.0,77,0.00,CLR,,0.00,0.0,WeatherDisplay:10.37,2013-08-02 02:47:00,
2013-08-02 04:52:00,62.2,54.9,30.15,WNW,292,0.0,0.0,77,0.00,CLR,,0.00,0.0,WeatherDisplay:10.37,2013-08-02 02:52:00,
2013-08-02 04:58:00,62.1,54.8,30.15,WNW,292,0.0,0.0,77,0.00,CLR,,0.00,0.0,WeatherDisplay:10.37,2013-08-02 02:58:00,
2013-08-02 05:03:00,62.1,55.1,30.15,WNW,292,0.0,0.0,78,0.00,OVC,,0.00,0.0,WeatherDisplay:10.37,2013-08-02 03:03:00,
2013-08-02 05:08:00,61.9,54.9,30.12,WNW,292,0.0,0.0,78,0.00,OVC,,0.00,0.0,WeatherDisplay:10.37,2013-08-02 03:08:00,
2013-08-02 05:13:00,61.9,54.9,30.12,WNW,292,0.0,0.0,78,0.00,OVC,,0.00,0.0,WeatherDisplay:10.37,2013-08-02 03:13:00,
2013-08-02 05:19:00,61.9,54.9,30.12,West,270,0.0,0.0,78,0.00,OVC,,0.00,0.0,WeatherDisplay:10.37,2013-08-02 03:19:00,
2013-08-02 05:24:00,61.9,54.9,30.12,West,270,0.0,0.0,78,0.00,OVC,,0.00,0.0,WeatherDisplay:10.37,2013-08-02 03:24:00,
2013-08-02 05:29:00,61.9,54.9,30.12,West,270,0.0,0.0,78,0.00,OVC,,0.00,0.0,WeatherDisplay:10.37,2013-08-02 03:29:00,
2013-08-02 05:35:00,61.7,54.8,30.12,West,270,0.0,0.0,78,0.00,OVC,,0.00,1.5,WeatherDisplay:10.37,2013-08-02 03:35:00,
2013-08-02 05:40:00,61.7,54.8,30.09,West,270,0.0,0.0,78,0.00,OVC,,0.00,3.8,WeatherDisplay:10.37,2013-08-02 03:40:00,
2013-08-02 05:45:00,61.7,55.1,30.09,West,270,0.0,0.0,79,0.00,OVC,,0.00,6.1,WeatherDisplay:10.37,2013-08-02 03:45:00,
2013-08-02 05:50:00,61.7,55.1,30.09,West,270,0.0,0.0,79,0.00,OVC,,0.00,8.4,WeatherDisplay:10.37,2013-08-02 03:50:00,
2013-08-02 05:55:00,61.7,55.1,30.09,West,270,0.0,0.0,79,0.00,OVC,,0.00,11.2,WeatherDisplay:10.37,2013-08-02 03:55:00,
2013-08-02 06:01:00,61.7,55.1,30.09,West,270,0.0,0.0,79,0.00,OVC,,0.00,13.7,WeatherDisplay:10.37,2013-08-02 04:01:00,
2013-08-02 06:07:00,61.9,55.3,30.09,West,270,0.0,0.0,79,0.00,OVC,,0.00,16.2,WeatherDisplay:10.37,2013-08-02 04:07:00,
2013-08-02 06:12:00,61.9,55.3,30.09,West,270,0.0,0.0,79,0.00,OVC,,0.00,18.6,WeatherDisplay:10.37,2013-08-02 04:12:00,
2013-08-02 06:17:00,61.9,55.6,30.09,West,270,0.0,0.0,80,0.00,OVC,,0.00,21.6,WeatherDisplay:10.37,2013-08-02 04:17:00,
2013-08-02 06:22:00,62.2,56.0,30.09,West,270,0.0,0.0,80,0.00,OVC,,0.00,24.1,WeatherDisplay:10.37,2013-08-02 04:22:00,
2013-08-02 06:27:00,62.4,56.2,30.09,South,180,0.0,0.0,80,0.00,OVC,,0.00,26.7,WeatherDisplay:10.37,2013-08-02 04:27:00,
2013-08-02 06:32:00,62.6,56.3,30.09,SSW,202,0.0,0.0,80,0.00,OVC,,0.00,29.4,WeatherDisplay:10.37,2013-08-02 04:32:00,
2013-08-02 06:37:00,63.0,56.7,30.09,SSW,202,0.0,0.0,80,0.00,OVC,,0.00,31.8,WeatherDisplay:10.37,2013-08-02 04:37:00,
2013-08-02 06:42:00,63.5,56.9,30.09,SSW,202,0.0,0.0,79,0.00,OVC,,0.00,34.5,WeatherDisplay:10.37,2013-08-02 04:42:00,
2013-08-02 06:47:00,63.9,57.2,30.09,SSW,202,0.0,0.0,79,0.00,OVC,,0.00,37.3,WeatherDisplay:10.37,2013-08-02 04:47:00,
2013-08-02 06:52:00,64.4,57.4,30.09,South,180,0.0,0.0,78,0.00,OVC,,0.00,39.9,WeatherDisplay:10.37,2013-08-02 04:52:00,
2013-08-02 06:57:00,65.1,57.7,30.09,South,180,0.0,0.0,77,0.00,OVC,,0.00,42.6,WeatherDisplay:10.37,2013-08-02 04:57:00,
2013-08-02 07:02:00,65.7,57.9,30.09,SSW,202,1.6,0.0,76,0.00,OVC,,0.00,45.4,WeatherDisplay:10.37,2013-08-02 05:02:00,
2013-08-02 07:07:00,66.2,58.0,30.09,South,180,2.3,2.3,75,0.00,OVC,,0.00,48.0,WeatherDisplay:10.37,2013-08-02 05:07:00,
2013-08-02 07:12:00,66.7,58.2,30.09,WSW,248,1.2,0.0,74,0.00,OVC,,0.00,50.8,WeatherDisplay:10.37,2013-08-02 05:12:00,
2013-08-02 07:17:00,67.3,58.3,30.09,ESE,112,1.4,0.0,73,0.00,OVC,,0.00,53.6,WeatherDisplay:10.37,2013-08-02 05:17:00,
2013-08-02 07:22:00,67.8,58.5,30.15,SSW,202,2.4,2.4,72,0.00,OVC,,0.00,56.3,WeatherDisplay:10.37,2013-08-02 05:22:00,
2013-08-02 07:27:00,68.4,58.6,30.15,SSW,202,2.4,0.0,71,0.00,OVC,,0.00,59.1,WeatherDisplay:10.37,2013-08-02 05:27:00,
2013-08-02 07:32:00,68.9,59.1,30.15,SSW,202,2.6,2.6,71,0.00,OVC,,0.00,61.9,WeatherDisplay:10.37,2013-08-02 05:32:00,
2013-08-02 07:37:00,69.4,59.2,30.09,SE,135,3.5,3.5,70,0.00,OVC,,0.00,64.7,WeatherDisplay:10.37,2013-08-02 05:37:00,
2013-08-02 07:42:00,70.0,59.3,30.09,SSW,202,3.5,3.5,69,0.00,OVC,,0.00,67.5,WeatherDisplay:10.37,2013-08-02 05:42:00,
2013-08-02 07:47:00,70.5,59.9,30.09,East,90,3.5,3.5,69,0.00,OVC,,0.00,70.5,WeatherDisplay:10.37,2013-08-02 05:47:00,
2013-08-02 07:52:00,70.9,60.2,30.12,SSW,202,4.6,4.6,69,0.00,OVC,,0.00,73.3,WeatherDisplay:10.37,2013-08-02 05:52:00,
2013-08-02 07:57:00,71.4,60.3,30.12,West,270,0.0,0.0,68,0.00,OVC,,0.00,76.1,WeatherDisplay:10.37,2013-08-02 05:57:00,
2013-08-02 08:02:00,71.8,60.2,30.12,SE,135,2.0,0.0,67,0.00,OVC,,0.00,78.9,WeatherDisplay:10.37,2013-08-02 06:02:00,
2013-08-02 08:07:00,72.0,60.4,30.15,SSW,202,1.2,0.0,67,0.00,OVC,,0.00,81.7,WeatherDisplay:10.37,2013-08-02 06:07:00,
2013-08-02 08:12:00,72.5,60.1,30.15,SSE,158,3.5,3.5,65,0.00,OVC,,0.00,84.5,WeatherDisplay:10.37,2013-08-02 06:12:00,
2013-08-02 08:17:00,73.0,61.0,30.15,NNW,338,1.2,0.0,66,0.00,OVC,,0.00,87.3,WeatherDisplay:10.37,2013-08-02 06:17:00,
2013-08-02 08:22:00,73.4,60.5,30.12,SSW,202,3.5,3.5,64,0.00,OVC,,0.00,90.1,WeatherDisplay:10.37,2013-08-02 06:22:00,
2013-08-02 08:27:00,73.8,60.8,30.12,SE,135,1.2,0.0,64,0.00,OVC,,0.00,92.9,WeatherDisplay:10.37,2013-08-02 06:27:00,
2013-08-02 08:32:00,74.1,60.7,30.12,WSW,248,2.3,2.3,63,0.00,OVC,,0.00,95.7,WeatherDisplay:10.37,2013-08-02 06:32:00,
2013-08-02 08:37:00,74.5,60.6,30.15,SSE,158,2.6,2.6,62,0.00,OVC,,0.00,98.5,WeatherDisplay:10.37,2013-08-02 06:37:00,
2013-08-02 08:42:00,74.8,61.4,30.15,SSW,202,3.6,3.6,63,0.00,OVC,,0.00,101.3,WeatherDisplay:10.37,2013-08-02 06:42:00,
2013-08-02 08:47:00,75.2,59.9,30.15,WSW,248,5.8,5.8,59,0.00,OVC,,0.00,104.1,WeatherDisplay:10.37,2013-08-02 06:47:00,
2013-08-02 08:52:00,75.4,60.1,30.15,WSW,248,3.8,3.8,59,0.00,OVC,,0.00,106.9,WeatherDisplay:10.37,2013-08-02 06:52:00,
2013-08-02 08:57:00,75.7,59.4,30.15,WSW,248,5.8,5.8,57,0.00,OVC,,0.00,109.6,WeatherDisplay:10.37,2013-08-02 06:57:00,
2013-08-02 09:02:00,76.1,58.8,30.15,SSW,202,4.6,4.6,55,0.00,OVC,,0.00,112.4,WeatherDisplay:10.37,2013-08-02 07:02:00,
2013-08-02 09:07:00,76.3,58.9,30.12,SSE,158,3.5,3.5,55,0.00,OVC,,0.00,115.0,WeatherDisplay:10.37,2013-08-02 07:07:00,
2013-08-02 09:12:00,76.5,58.6,30.12,WSW,248,5.8,5.8,54,0.00,OVC,,0.00,117.6,WeatherDisplay:10.37,2013-08-02 07:12:00,
2013-08-02 09:17:00,76.8,59.9,30.12,SSW,202,3.3,3.3,56,0.00,OVC,,0.00,120.3,WeatherDisplay:10.37,2013-08-02 07:17:00,
2013-08-02 09:22:00,77.2,58.7,30.12,SSW,202,4.6,4.6,53,0.00,OVC,,0.00,122.9,WeatherDisplay:10.37,2013-08-02 07:22:00,
2013-08-02 09:27:00,77.5,58.5,30.12,SW,225,5.8,5.8,52,0.00,OVC,,0.00,125.6,WeatherDisplay:10.37,2013-08-02 07:27:00,
2013-08-02 09:32:00,77.7,58.7,30.12,NNW,338,4.6,4.6,52,0.00,OVC,,0.00,128.0,WeatherDisplay:10.37,2013-08-02 07:32:00,
2013-08-02 09:37:00,77.9,59.4,30.12,West,270,4.6,4.6,53,0.00,OVC,,0.00,130.5,WeatherDisplay:10.37,2013-08-02 07:37:00,
2013-08-02 09:42:00,78.3,60.2,30.12,West,270,3.5,3.5,54,0.00,OVC,,0.00,133.2,WeatherDisplay:10.37,2013-08-02 07:42:00,
2013-08-02 09:47:00,78.6,60.1,30.12,SSW,202,4.6,4.6,53,0.00,OVC,,0.00,135.6,WeatherDisplay:10.37,2013-08-02 07:47:00,
2013-08-02 09:52:00,78.8,58.6,30.12,SSW,202,5.8,5.8,50,0.00,OVC,,0.00,137.9,WeatherDisplay:10.37,2013-08-02 07:52:00,
2013-08-02 09:57:00,79.2,59.5,30.12,WSW,248,5.8,5.8,51,0.00,OVC,,0.00,140.4,WeatherDisplay:10.37,2013-08-02 07:57:00,
2013-08-02 10:02:00,79.5,59.2,30.12,WNW,292,2.3,2.3,50,0.00,OVC,,0.00,142.7,WeatherDisplay:10.37,2013-08-02 08:02:00,
2013-08-02 10:07:00,79.5,59.2,30.09,WSW,248,2.3,0.0,50,0.00,OVC,,0.00,145.0,WeatherDisplay:10.37,2013-08-02 08:07:00,
2013-08-02 10:12:00,79.9,60.1,30.09,WNW,292,2.3,0.0,51,0.00,OVC,,0.00,147.3,WeatherDisplay:10.37,2013-08-02 08:12:00,
2013-08-02 10:17:00,80.2,58.8,30.09,WNW,292,4.6,4.6,48,0.00,OVC,,0.00,149.5,WeatherDisplay:10.37,2013-08-02 08:17:00,
2013-08-02 10:22:00,80.4,58.9,30.09,SSW,202,4.6,4.6,48,0.00,OVC,,0.00,151.6,WeatherDisplay:10.37,2013-08-02 08:22:00,
2013-08-02 10:27:00,80.6,58.5,30.09,WNW,292,4.6,4.6,47,0.00,OVC,,0.00,153.8,WeatherDisplay:10.37,2013-08-02 08:27:00,
2013-08-02 10:32:00,80.8,59.3,30.09,SSW,202,2.6,2.6,48,0.00,OVC,,0.00,155.9,WeatherDisplay:10.37,2013-08-02 08:32:00,
2013-08-02 10:37:00,81.1,59.0,30.09,WSW,248,5.8,5.8,47,0.00,OVC,,0.00,157.9,WeatherDisplay:10.37,2013-08-02 08:37:00,
2013-08-02 10:42:00,81.3,59.2,30.09,SSW,202,4.6,4.6,47,0.00,OVC,,0.00,159.9,WeatherDisplay:10.37,2013-08-02 08:42:00,
2013-08-02 10:47:00,81.7,58.9,30.09,West,270,2.3,2.3,46,0.00,OVC,,0.00,161.7,WeatherDisplay:10.37,2013-08-02 08:47:00,
2013-08-02 10:52:00,81.9,59.7,30.09,SE,135,4.6,4.6,47,0.00,OVC,,0.00,163.7,WeatherDisplay:10.37,2013-08-02 08:52:00,
2013-08-02 10:57:00,82.2,58.8,30.09,SSW,202,5.8,5.8,45,0.00,OVC,,0.00,165.5,WeatherDisplay:10.37,2013-08-02 08:57:00,
2013-08-02 11:02:00,82.4,58.3,30.09,WNW,292,3.5,0.0,44,0.00,OVC,,0.00,167.1,WeatherDisplay:10.37,2013-08-02 09:02:00,
2013-08-02 11:07:00,82.6,58.5,30.09,ESE,112,4.3,4.3,44,0.00,OVC,,0.00,168.8,WeatherDisplay:10.37,2013-08-02 09:07:00,
2013-08-02 11:12:00,82.8,59.3,30.09,West,270,4.9,4.9,45,0.00,OVC,,0.00,170.4,WeatherDisplay:10.37,2013-08-02 09:12:00,
2013-08-02 11:17:00,82.9,58.8,30.09,WSW,248,2.3,2.3,44,0.00,OVC,,0.00,172.1,WeatherDisplay:10.37,2013-08-02 09:17:00,
2013-08-02 11:22:00,83.1,58.9,30.06,WNW,292,4.7,4.7,44,0.00,OVC,,0.00,173.6,WeatherDisplay:10.37,2013-08-02 09:22:00,
2013-08-02 11:27:00,83.3,58.5,30.06,SSW,202,3.5,0.0,43,0.00,OVC,,0.00,175.1,WeatherDisplay:10.37,2013-08-02 09:27:00,
2013-08-02 11:32:00,83.8,58.3,30.06,WNW,292,4.6,4.6,42,0.00,OVC,,0.00,176.4,WeatherDisplay:10.37,2013-08-02 09:32:00,
2013-08-02 11:37:00,84.2,58.6,30.06,NNW,338,3.6,3.8,42,0.00,OVC,,0.00,177.7,WeatherDisplay:10.37,2013-08-02 09:37:00,
2013-08-02 11:42:00,84.6,58.9,30.06,NW,315,9.2,9.2,42,0.00,OVC,,0.00,179.0,WeatherDisplay:10.37,2013-08-02 09:42:00,
2013-08-02 11:47:00,84.7,58.4,30.06,NNW,338,5.8,5.8,41,0.00,OVC,,0.00,180.2,WeatherDisplay:10.37,2013-08-02 09:47:00,
2013-08-02 11:52:00,84.7,57.0,30.03,WNW,292,4.6,4.6,39,0.00,OVC,,0.00,181.2,WeatherDisplay:10.37,2013-08-02 09:52:00,
2013-08-02 11:57:00,84.7,58.4,30.03,ENE,68,3.5,3.5,41,0.00,OVC,,0.00,182.3,WeatherDisplay:10.37,2013-08-02 09:57:00,
2013-08-02 12:02:00,84.7,58.4,30.03,WNW,292,5.8,5.8,41,0.00,OVC,,0.00,183.3,WeatherDisplay:10.37,2013-08-02 10:02:00,
2013-08-02 12:07:00,84.9,57.2,30.03,WSW,248,4.0,4.0,39,0.00,OVC,,0.00,184.1,WeatherDisplay:10.37,2013-08-02 10:07:00,
2013-08-02 12:12:00,84.9,58.6,30.03,WNW,292,4.6,4.6,41,0.00,OVC,,0.00,185.0,WeatherDisplay:10.37,2013-08-02 10:12:00,
2013-08-02 12:17:00,85.1,58.8,30.03,WSW,248,4.6,4.6,41,0.00,OVC,,0.00,185.8,WeatherDisplay:10.37,2013-08-02 10:17:00,
2013-08-02 12:22:00,85.5,58.4,30.03,WSW,248,4.6,4.6,40,0.00,OVC,,0.00,186.4,WeatherDisplay:10.37,2013-08-02 10:22:00,
2013-08-02 12:27:00,85.6,57.8,30.03,SW,225,5.8,5.8,39,0.00,OVC,,0.00,187.1,WeatherDisplay:10.37,2013-08-02 10:27:00,
2013-08-02 12:32:00,85.8,58.7,30.03,SSE,158,0.0,0.0,40,0.00,OVC,,0.00,187.6,WeatherDisplay:10.37,2013-08-02 10:32:00,
2013-08-02 12:37:00,86.0,58.2,30.06,WSW,248,8.1,8.1,39,0.00,OVC,,0.00,188.1,WeatherDisplay:10.37,2013-08-02 10:37:00,
2013-08-02 12:42:00,86.2,58.3,30.06,WNW,292,4.6,4.6,39,0.00,OVC,,0.00,188.4,WeatherDisplay:10.37,2013-08-02 10:42:00,
2013-08-02 12:47:00,86.4,57.8,30.06,NW,315,4.6,4.6,38,0.00,OVC,,0.00,188.8,WeatherDisplay:10.37,2013-08-02 10:47:00,
2013-08-02 12:52:00,86.4,58.5,30.06,West,270,3.5,3.5,39,0.00,OVC,,0.00,188.9,WeatherDisplay:10.37,2013-08-02 10:52:00,
2013-08-02 12:57:00,86.5,58.6,30.06,NNW,338,5.8,5.8,39,0.00,OVC,,0.00,189.3,WeatherDisplay:10.37,2013-08-02 10:57:00,
2013-08-02 13:02:00,86.7,57.3,30.06,ESE,112,5.8,5.8,37,0.00,OVC,,0.00,189.3,WeatherDisplay:10.37,2013-08-02 11:02:00,
2013-08-02 13:07:00,86.9,59.0,30.06,WSW,248,6.9,6.9,39,0.00,OVC,,0.00,189.3,WeatherDisplay:10.37,2013-08-02 11:07:00,
2013-08-02 13:12:00,87.1,58.4,30.06,WNW,292,4.6,4.6,38,0.00,OVC,,0.00,189.3,WeatherDisplay:10.37,2013-08-02 11:12:00,
2013-08-02 13:17:00,87.3,58.6,30.06,ESE,112,4.6,4.6,38,0.00,OVC,,0.00,189.1,WeatherDisplay:10.37,2013-08-02 11:17:00,
2013-08-02 13:22:00,87.3,58.6,30.06,ENE,68,3.5,3.5,38,0.00,OVC,,0.00,188.9,WeatherDisplay:10.37,2013-08-02 11:22:00,
2013-08-02 13:27:00,87.4,58.7,30.06,SW,225,4.6,4.6,38,0.00,OVC,,0.00,188.6,WeatherDisplay:10.37,2013-08-02 11:27:00,
2013-08-02 13:32:00,87.6,56.6,30.06,WSW,248,8.1,8.1,35,0.00,OVC,,0.00,188.3,WeatherDisplay:10.37,2013-08-02 11:32:00,
2013-08-02 13:37:00,87.8,58.3,30.03,SSW,202,4.6,4.6,37,0.00,OVC,,0.00,187.8,WeatherDisplay:10.37,2013-08-02 11:37:00,
2013-08-02 13:42:00,88.2,58.6,30.03,WSW,248,6.9,6.9,37,0.00,OVC,,0.00,187.3,WeatherDisplay:10.37,2013-08-02 11:42:00,
2013-08-02 13:47:00,88.0,56.9,30.03,WSW,248,5.8,5.8,35,0.00,OVC,,0.00,186.8,WeatherDisplay:10.37,2013-08-02 11:47:00,
2013-08-02 13:52:00,88.2,56.3,30.03,NNE,22,6.9,6.9,34,0.00,OVC,,0.00,186.1,WeatherDisplay:10.37,2013-08-02 11:52:00,
2013-08-02 13:57:00,88.0,56.1,30.03,NNW,338,2.4,2.4,34,0.00,OVC,,0.00,185.5,WeatherDisplay:10.37,2013-08-02 11:57:00,
2013-08-02 14:02:00,88.2,56.3,30.03,North,0,5.8,5.8,34,0.00,OVC,,0.00,184.6,WeatherDisplay:10.37,2013-08-02 12:02:00,
2013-08-02 14:07:00,88.5,57.4,30.00,WSW,248,4.6,4.6,35,0.00,OVC,,0.00,183.8,WeatherDisplay:10.37,2013-08-02 12:07:00,
2013-08-02 14:12:00,88.9,57.7,30.00,ESE,112,2.3,2.3,35,0.00,OVC,,0.00,182.8,WeatherDisplay:10.37,2013-08-02 12:12:00,
2013-08-02 14:17:00,89.1,57.0,30.00,WNW,292,7.1,7.1,34,0.00,OVC,,0.00,181.8,WeatherDisplay:10.37,2013-08-02 12:17:00,
2013-08-02 14:22:00,89.6,57.5,30.00,NW,315,5.9,5.9,34,0.00,OVC,,0.00,180.7,WeatherDisplay:10.37,2013-08-02 12:22:00,
2013-08-02 14:27:00,89.6,56.7,30.00,WNW,292,5.8,5.8,33,0.00,OVC,,0.00,179.5,WeatherDisplay:10.37,2013-08-02 12:27:00,
2013-08-02 14:32:00,89.8,56.8,30.00,West,270,6.9,6.9,33,0.00,OVC,,0.00,178.4,WeatherDisplay:10.37,2013-08-02 12:32:00,
2013-08-02 14:37:00,90.0,57.0,30.00,NNE,22,5.8,5.8,33,0.00,OVC,,0.00,177.0,WeatherDisplay:10.37,2013-08-02 12:37:00,
2013-08-02 14:42:00,90.3,55.6,30.00,WSW,248,6.4,6.4,31,0.00,OVC,,0.00,175.7,WeatherDisplay:10.37,2013-08-02 12:42:00,
2013-08-02 14:47:00,90.7,56.8,30.00,NNW,338,8.1,8.1,32,0.00,OVC,,0.00,174.4,WeatherDisplay:10.37,2013-08-02 12:47:00,
2013-08-02 14:52:00,91.0,57.9,29.97,NNE,22,5.8,5.8,33,0.00,OVC,,0.00,172.9,WeatherDisplay:10.37,2013-08-02 12:52:00,
2013-08-02 14:57:00,91.6,56.7,29.97,NNW,338,4.0,4.3,31,0.00,OVC,,0.00,171.4,WeatherDisplay:10.37,2013-08-02 12:57:00,
2013-08-02 15:02:00,91.8,57.7,29.97,WNW,292,4.0,4.5,32,0.00,OVC,,0.00,169.8,WeatherDisplay:10.37,2013-08-02 13:02:00,
2013-08-02 15:07:00,92.5,57.4,30.03,SSE,158,4.6,4.6,31,0.00,OVC,,0.00,168.1,WeatherDisplay:10.37,2013-08-02 13:07:00,
2013-08-02 15:12:00,92.8,56.8,30.03,ESE,112,4.6,4.6,30,0.00,OVC,,0.00,166.3,WeatherDisplay:10.37,2013-08-02 13:12:00,
2013-08-02 15:17:00,93.4,56.4,30.03,WNW,292,6.0,6.0,29,0.00,OVC,,0.00,164.7,WeatherDisplay:10.37,2013-08-02 13:17:00,
2013-08-02 15:22:00,93.2,56.2,30.00,SSW,202,8.1,8.1,29,0.00,OVC,,0.00,162.9,WeatherDisplay:10.37,2013-08-02 13:22:00,
2013-08-02 15:27:00,94.1,57.9,30.00,ESE,112,2.9,2.9,30,0.00,OVC,,0.00,160.9,WeatherDisplay:10.37,2013-08-02 13:27:00,
2013-08-02 15:32:00,94.5,58.2,30.00,SSE,158,4.0,4.0,30,0.00,OVC,,0.00,158.9,WeatherDisplay:10.37,2013-08-02 13:32:00,
2013-08-02 15:37:00,95.0,57.8,30.00,WNW,292,2.3,2.3,29,0.00,OVC,,0.00,156.9,WeatherDisplay:10.37,2013-08-02 13:37:00,
2013-08-02 15:42:00,95.7,58.4,30.00,WNW,292,4.6,4.6,29,0.00,OVC,,0.00,154.9,WeatherDisplay:10.37,2013-08-02 13:42:00,
2013-08-02 15:47:00,95.7,57.4,30.00,West,270,3.5,3.5,28,0.00,OVC,,0.00,152.8,WeatherDisplay:10.37,2013-08-02 13:47:00,
2013-08-02 15:52:00,95.0,55.8,30.00,West,270,3.5,3.5,27,0.00,OVC,,0.00,150.6,WeatherDisplay:10.37,2013-08-02 13:52:00,
2013-08-02 15:57:00,95.7,57.4,30.00,WSW,248,4.6,0.0,28,0.00,OVC,,0.00,148.5,WeatherDisplay:10.37,2013-08-02 13:57:00,
2013-08-02 16:02:00,95.9,57.6,30.00,SSW,202,4.6,4.6,28,0.00,OVC,,0.00,146.2,WeatherDisplay:10.37,2013-08-02 14:02:00,
2013-08-02 16:07:00,95.9,58.5,29.97,WSW,248,2.3,2.4,29,0.00,OVC,,0.00,143.9,WeatherDisplay:10.37,2013-08-02 14:07:00,
2013-08-02 16:12:00,96.3,57.9,29.97,SSE,158,4.6,4.6,28,0.00,OVC,,0.00,141.6,WeatherDisplay:10.37,2013-08-02 14:12:00,
2013-08-02 16:17:00,96.6,58.2,29.97,West,270,2.6,2.6,28,0.00,OVC,,0.00,139.3,WeatherDisplay:10.37,2013-08-02 14:17:00,
2013-08-02 16:22:00,96.6,57.2,29.97,NNW,338,4.3,4.3,27,0.00,OVC,,0.00,136.8,WeatherDisplay:10.37,2013-08-02 14:22:00,
2013-08-02 16:27:00,96.1,56.7,29.97,WSW,248,4.6,4.6,27,0.00,OVC,,0.00,134.5,WeatherDisplay:10.37,2013-08-02 14:27:00,
2013-08-02 16:32:00,95.7,56.4,29.97,East,90,3.6,3.6,27,0.00,OVC,,0.00,132.0,WeatherDisplay:10.37,2013-08-02 14:32:00,
2013-08-02 16:37:00,95.9,56.5,29.97,WNW,292,4.6,4.6,27,0.00,OVC,,0.00,129.4,WeatherDisplay:10.37,2013-08-02 14:37:00,
2013-08-02 16:42:00,95.9,56.5,29.97,WNW,292,4.6,4.6,27,0.00,OVC,,0.00,126.9,WeatherDisplay:10.37,2013-08-02 14:42:00,
2013-08-02 16:48:00,95.9,56.5,29.97,WSW,248,3.5,3.5,27,0.00,OVC,,0.00,124.2,WeatherDisplay:10.37,2013-08-02 14:48:00,
2013-08-02 16:53:00,95.9,55.5,29.97,SSE,158,0.0,0.0,26,0.00,OVC,,0.00,121.8,WeatherDisplay:10.37,2013-08-02 14:53:00,
2013-08-02 16:58:00,95.7,56.4,29.97,NNW,338,3.6,3.6,27,0.00,OVC,,0.00,119.1,WeatherDisplay:10.37,2013-08-02 14:58:00,
2013-08-02 17:03:00,95.5,56.2,29.97,NNW,338,3.8,3.8,27,0.00,OVC,,0.00,116.3,WeatherDisplay:10.37,2013-08-02 15:03:00,
2013-08-02 17:08:00,95.2,55.9,29.94,West,270,4.6,4.6,27,0.00,OVC,,0.00,113.7,WeatherDisplay:10.37,2013-08-02 15:08:00,
2013-08-02 17:13:00,95.4,56.1,29.94,WSW,248,6.0,6.0,27,0.00,OVC,,0.00,111.0,WeatherDisplay:10.37,2013-08-02 15:13:00,
2013-08-02 17:18:00,94.8,55.6,29.94,WNW,292,5.8,5.8,27,0.00,OVC,,0.00,108.2,WeatherDisplay:10.37,2013-08-02 15:18:00,
2013-08-02 17:23:00,94.8,55.6,29.94,WSW,248,5.8,5.8,27,0.00,OVC,,0.00,104.9,WeatherDisplay:10.37,2013-08-02 15:23:00,
2013-08-02 17:28:00,94.8,55.6,29.94,WSW,248,2.4,2.4,27,0.00,OVC,,0.00,102.3,WeatherDisplay:10.37,2013-08-02 15:28:00,
2013-08-02 17:33:00,94.6,55.5,29.94,WNW,292,3.5,3.5,27,0.00,OVC,,0.00,99.5,WeatherDisplay:10.37,2013-08-02 15:33:00,
2013-08-02 17:38:00,93.6,54.6,29.94,WNW,292,2.6,2.6,27,0.00,OVC,,0.00,96.7,WeatherDisplay:10.37,2013-08-02 15:38:00,
2013-08-02 17:43:00,92.7,54.8,29.94,SW,225,3.5,3.5,28,0.00,OVC,,0.00,93.9,WeatherDisplay:10.37,2013-08-02 15:43:00,
2013-08-02 17:48:00,91.8,54.0,29.94,NNW,338,5.8,5.8,28,0.00,OVC,,0.00,91.1,WeatherDisplay:10.37,2013-08-02 15:48:00,
2013-08-02 17:53:00,91.0,54.4,29.94,NNW,338,3.5,3.5,29,0.00,OVC,,0.00,88.3,WeatherDisplay:10.37,2013-08-02 15:53:00,
2013-08-02 17:58:00,90.3,53.7,29.94,NNE,22,3.5,3.5,29,0.00,OVC,,0.00,85.5,WeatherDisplay:10.37,2013-08-02 15:58:00,
2013-08-02 18:03:00,90.0,53.4,29.94,WNW,292,3.5,3.5,29,0.00,OVC,,0.00,82.5,WeatherDisplay:10.37,2013-08-02 16:03:00,
2013-08-02 18:08:00,89.6,53.1,29.94,WSW,248,3.5,3.5,29,0.00,OVC,,0.00,79.7,WeatherDisplay:10.37,2013-08-02 16:08:00,
2013-08-02 18:13:00,83.3,74.5,29.94,NNW,338,2.4,2.4,75,0.00,OVC,,0.00,76.9,WeatherDisplay:10.37,2013-08-02 16:13:00,
2013-08-02 18:18:00,75.0,68.8,29.94,West,270,3.5,3.5,81,0.00,OVC,,0.00,74.1,WeatherDisplay:10.37,2013-08-02 16:18:00,
2013-08-02 18:23:00,72.0,65.8,29.94,WNW,292,5.8,5.8,81,0.00,OVC,,0.00,71.3,WeatherDisplay:10.37,2013-08-02 16:23:00,
2013-08-02 18:28:00,73.0,66.9,29.94,WNW,292,3.1,3.1,81,0.00,OVC,,0.00,68.5,WeatherDisplay:10.37,2013-08-02 16:28:00,
2013-08-02 18:33:00,73.0,66.9,29.94,WNW,292,2.3,2.3,81,0.00,OVC,,0.00,65.5,WeatherDisplay:10.37,2013-08-02 16:33:00,
2013-08-02 18:38:00,73.4,66.9,29.94,WNW,292,3.5,3.5,80,0.00,OVC,,0.00,62.7,WeatherDisplay:10.37,2013-08-02 16:38:00,
2013-08-02 18:43:00,74.5,68.3,29.94,NNE,22,2.3,2.3,81,0.00,OVC,,0.00,59.9,WeatherDisplay:10.37,2013-08-02 16:43:00,
2013-08-02 18:48:00,75.6,69.3,29.94,WNW,292,3.5,3.5,81,0.00,OVC,,0.00,57.1,WeatherDisplay:10.37,2013-08-02 16:48:00,
2013-08-02 18:53:00,76.5,70.9,29.94,NNW,338,2.6,2.6,83,0.00,OVC,,0.00,54.5,WeatherDisplay:10.37,2013-08-02 16:53:00,
2013-08-02 18:58:00,77.4,71.4,29.94,WNW,292,2.3,2.3,82,0.00,OVC,,0.00,51.6,WeatherDisplay:10.37,2013-08-02 16:58:00,
2013-08-02 19:03:00,77.9,71.6,29.94,WNW,292,4.6,4.6,81,0.00,OVC,,0.00,48.8,WeatherDisplay:10.37,2013-08-02 17:03:00,
2013-08-02 19:08:00,79.2,72.5,29.94,NNW,338,3.5,3.5,80,0.00,OVC,,0.00,46.0,WeatherDisplay:10.37,2013-08-02 17:08:00,
2013-08-02 19:13:00,79.9,72.4,29.94,NNW,338,2.3,2.3,78,0.00,OVC,,0.00,43.4,WeatherDisplay:10.37,2013-08-02 17:13:00,
2013-08-02 19:18:00,80.8,72.1,29.94,WNW,292,2.3,2.3,75,0.00,OVC,,0.00,40.6,WeatherDisplay:10.37,2013-08-02 17:18:00,
2013-08-02 19:23:00,81.3,69.7,29.94,WNW,292,2.9,2.9,68,0.00,OVC,,0.00,38.0,WeatherDisplay:10.37,2013-08-02 17:23:00,
2013-08-02 19:28:00,82.2,66.9,29.94,WNW,292,0.0,0.0,60,0.00,OVC,,0.00,35.3,WeatherDisplay:10.37,2013-08-02 17:28:00,
2013-08-02 19:33:00,82.8,64.4,29.94,WNW,292,1.2,0.0,54,0.00,OVC,,0.00,32.7,WeatherDisplay:10.37,2013-08-02 17:33:00,
2013-08-02 19:38:00,82.8,63.3,29.94,WNW,292,0.0,0.0,52,0.00,OVC,,0.00,30.0,WeatherDisplay:10.37,2013-08-02 17:38:00,
2013-08-02 19:43:00,82.8,62.8,29.94,WNW,292,0.0,0.0,51,0.00,OVC,,0.00,27.4,WeatherDisplay:10.37,2013-08-02 17:43:00,
2013-08-02 19:48:00,82.6,62.1,29.94,WNW,292,0.0,0.0,50,0.00,OVC,,0.00,24.8,WeatherDisplay:10.37,2013-08-02 17:48:00,
2013-08-02 19:53:00,82.4,62.5,29.94,WNW,292,0.0,0.0,51,0.00,OVC,,0.00,22.3,WeatherDisplay:10.37,2013-08-02 17:53:00,
2013-08-02 19:58:00,82.0,61.6,29.94,WNW,292,0.0,0.0,50,0.00,OVC,,0.00,19.8,WeatherDisplay:10.37,2013-08-02 17:58:00,
2013-08-02 20:03:00,81.7,61.2,29.94,WNW,292,0.0,0.0,50,0.00,OVC,,0.00,17.2,WeatherDisplay:10.37,2013-08-02 18:03:00,
2013-08-02 20:08:00,81.3,61.5,29.97,East,90,1.2,0.0,51,0.00,OVC,,0.00,15.2,WeatherDisplay:10.37,2013-08-02 18:08:00,
2013-08-02 20:13:00,80.8,61.0,29.97,ENE,68,0.0,0.0,51,0.00,OVC,,0.00,12.4,WeatherDisplay:10.37,2013-08-02 18:13:00,
2013-08-02 20:18:00,80.4,61.2,29.97,NNE,22,0.0,0.0,52,0.00,OVC,,0.00,9.9,WeatherDisplay:10.37,2013-08-02 18:18:00,
2013-08-02 20:23:00,79.9,60.7,29.97,NNE,22,0.0,0.0,52,0.00,OVC,,0.00,7.6,WeatherDisplay:10.37,2013-08-02 18:23:00,
2013-08-02 20:28:00,79.5,60.4,29.97,NNE,22,0.0,0.0,52,0.00,OVC,,0.00,5.1,WeatherDisplay:10.37,2013-08-02 18:28:00,
2013-08-02 20:33:00,79.2,60.6,29.97,NNW,338,0.0,0.0,53,0.00,OVC,,0.00,2.8,WeatherDisplay:10.37,2013-08-02 18:33:00,
2013-08-02 20:38:00,78.8,60.2,29.97,NNW,338,1.2,1.2,53,0.00,OVC,,0.00,0.7,WeatherDisplay:10.37,2013-08-02 18:38:00,
2013-08-02 20:43:00,78.3,59.7,29.97,NNW,338,0.0,0.0,53,0.00,OVC,,0.00,0.7,WeatherDisplay:10.37,2013-08-02 18:43:00,
2013-08-02 20:48:00,77.9,59.4,29.97,WSW,248,0.0,0.0,53,0.00,CLR,,0.00,0.0,WeatherDisplay:10.37,2013-08-02 18:48:00,
2013-08-02 20:53:00,77.5,59.1,30.00,WSW,248,0.0,0.0,53,0.00,CLR,,0.00,0.0,WeatherDisplay:10.37,2013-08-02 18:53:00,
2013-08-02 20:58:00,77.2,58.7,30.00,WNW,292,0.0,0.0,53,0.00,CLR,,0.00,0.0,WeatherDisplay:10.37,2013-08-02 18:58:00,
2013-08-02 21:03:00,77.0,59.1,30.00,WNW,292,0.0,0.0,54,0.00,CLR,,0.00,0.0,WeatherDisplay:10.37,2013-08-02 19:03:00,
2013-08-02 21:08:00,76.6,59.3,30.00,WNW,292,0.0,0.0,55,0.00,CLR,,0.00,0.0,WeatherDisplay:10.37,2013-08-02 19:08:00,
2013-08-02 21:13:00,76.5,59.1,30.00,WNW,292,0.0,0.0,55,0.00,CLR,,0.00,0.0,WeatherDisplay:10.37,2013-08-02 19:13:00,
2013-08-02 21:18:00,76.1,58.8,30.00,WNW,292,0.0,0.0,55,0.00,CLR,,0.00,0.0,WeatherDisplay:10.37,2013-08-02 19:18:00,
2013-08-02 21:23:00,75.7,58.4,30.00,WNW,292,0.0,0.0,55,0.00,CLR,,0.00,0.0,WeatherDisplay:10.37,2013-08-02 19:23:00,
2013-08-02 21:28:00,75.6,58.3,30.00,NNE,22,0.0,0.0,55,0.00,CLR,,0.00,0.0,WeatherDisplay:10.37,2013-08-02 19:28:00,
2013-08-02 21:33:00,75.2,57.9,30.00,NW,315,0.0,0.0,55,0.00,CLR,,0.00,0.0,WeatherDisplay:10.37,2013-08-02 19:33:00,
2013-08-02 21:38:00,75.0,58.3,30.00,NW,315,0.0,0.0,56,0.00,CLR,,0.00,0.0,WeatherDisplay:10.37,2013-08-02 19:38:00,
2013-08-02 21:43:00,74.8,57.6,30.00,NW,315,0.0,0.0,55,0.00,CLR,,0.00,0.0,WeatherDisplay:10.37,2013-08-02 19:43:00,
2013-08-02 21:48:00,74.5,57.8,30.00,NW,315,0.0,0.0,56,0.00,CLR,,0.00,0.0,WeatherDisplay:10.37,2013-08-02 19:48:00,
2013-08-02 21:53:00,74.3,57.6,30.03,NW,315,0.0,0.0,56,0.00,CLR,,0.00,0.0,WeatherDisplay:10.37,2013-08-02 19:53:00,
2013-08-02 21:58:00,73.9,57.7,30.03,NW,315,0.0,0.0,57,0.00,CLR,,0.00,0.0,WeatherDisplay:10.37,2013-08-02 19:58:00,
2013-08-02 22:03:00,73.8,57.6,30.03,NW,315,0.0,0.0,57,0.00,CLR,,0.00,0.0,WeatherDisplay:10.37,2013-08-02 20:03:00,
2013-08-02 22:08:00,73.6,57.4,30.00,NW,315,0.0,0.0,57,0.00,CLR,,0.00,0.0,WeatherDisplay:10.37,2013-08-02 20:08:00,
2013-08-02 22:09:00,73.4,57.2,30.00,NW,315,0.0,0.0,57,0.00,CLR,,0.00,0.0,WeatherDisplay:10.37,2013-08-02 20:09:00,
2013-08-02 22:14:00,73.2,57.6,30.00,NW,315,0.0,0.0,58,0.00,CLR,,0.00,0.0,WeatherDisplay:10.37,2013-08-02 20:14:00,
2013-08-02 22:19:00,73.0,57.4,30.00,NW,315,0.0,0.0,58,0.00,CLR,,0.00,0.0,WeatherDisplay:10.37,2013-08-02 20:19:00,
2013-08-02 22:24:00,72.7,57.5,29.97,NW,315,0.0,0.0,59,0.00,CLR,,0.00,0.0,WeatherDisplay:10.37,2013-08-02 20:24:00,
2013-08-02 22:29:00,72.5,57.4,29.97,NW,315,0.0,0.0,59,0.00,CLR,,0.00,0.0,WeatherDisplay:10.37,2013-08-02 20:29:00,
2013-08-02 22:34:00,72.3,57.7,29.97,NW,315,0.0,0.0,60,0.00,CLR,,0.00,0.0,WeatherDisplay:10.37,2013-08-02 20:34:00,
2013-08-02 22:39:00,72.0,57.3,29.97,NW,315,0.0,0.0,60,0.00,CLR,,0.00,0.0,WeatherDisplay:10.37,2013-08-02 20:39:00,
2013-08-02 22:44:00,71.8,57.1,29.97,NW,315,0.0,0.0,60,0.00,CLR,,0.00,0.0,WeatherDisplay:10.37,2013-08-02 20:44:00,
2013-08-02 22:49:00,71.6,57.4,29.97,NW,315,0.0,0.0,61,0.00,CLR,,0.00,0.0,WeatherDisplay:10.37,2013-08-02 20:49:00,
2013-08-02 22:54:00,71.4,57.3,29.97,NW,315,0.0,0.0,61,0.00,CLR,,0.00,0.0,WeatherDisplay:10.37,2013-08-02 20:54:00,
2013-08-02 22:59:00,71.2,57.5,29.97,NW,315,0.0,0.0,62,0.00,CLR,,0.00,0.0,WeatherDisplay:10.37,2013-08-02 20:59:00,
2013-08-02 23:03:00,71.1,57.4,29.97,NW,315,0.0,0.0,62,0.00,CLR,,0.00,0.0,WeatherDisplay:10.37,2013-08-02 21:03:00,
2013-08-02 23:08:00,70.9,57.2,29.97,NW,315,0.0,0.0,62,0.00,CLR,,0.00,0.0,WeatherDisplay:10.37,2013-08-02 21:08:00,
2013-08-02 23:14:00,70.7,57.0,29.97,NW,315,0.0,0.0,62,0.00,CLR,,0.00,0.0,WeatherDisplay:10.37,2013-08-02 21:14:00,
2013-08-02 23:19:00,70.5,56.9,29.97,NW,315,0.0,0.0,62,0.00,CLR,,0.00,0.0,WeatherDisplay:10.37,2013-08-02 21:19:00,
2013-08-02 23:24:00,70.5,56.9,29.97,NW,315,0.0,0.0,62,0.00,CLR,,0.00,0.0,WeatherDisplay:10.37,2013-08-02 21:24:00,
2013-08-02 23:29:00,70.3,57.1,29.97,NW,315,0.0,0.0,63,0.00,CLR,,0.00,0.0,WeatherDisplay:10.37,2013-08-02 21:29:00,
2013-08-02 23:34:00,70.2,57.0,29.97,NW,315,0.0,0.0,63,0.00,CLR,,0.00,0.0,WeatherDisplay:10.37,2013-08-02 21:34:00,
2013-08-02 23:39:00,70.0,57.2,29.97,NW,315,0.0,0.0,64,0.00,CLR,,0.00,0.0,WeatherDisplay:10.37,2013-08-02 21:39:00,
2013-08-02 23:43:00,69.8,57.1,29.97,NW,315,0.0,0.0,64,0.00,CLR,,0.00,0.0,WeatherDisplay:10.37,2013-08-02 21:43:00,
2013-08-02 23:49:00,69.6,56.9,29.97,NW,315,0.0,0.0,64,0.00,CLR,,0.00,0.0,WeatherDisplay:10.37,2013-08-02 21:49:00,
2013-08-02 23:54:00,69.4,56.7,29.97,NW,315,0.0,0.0,64,0.00,CLR,,0.00,0.0,WeatherDisplay:10.37,2013-08-02 21:54:00,
2013-08-02 23:59:00,69.3,56.6,29.97,NNW,338,0.0,0.0,64,0.00,CLR,,0.00,0.0,WeatherDisplay:10.37,2013-08-02 21:59:00,